Waco, TX

1:49 PM CDT on October 21, 2017 (GMT -0500)
Waco Regional

Weather History for KACT - April, 2013

Change the Weather History Date:

Friday, April 26, 2013

  Actual Average Record
Temperature  
Mean Temperature 70 °F 69 °F  
Max Temperature 79 °F 80 °F 97 °F (1902)
Min Temperature 61 °F 58 °F 38 °F (1910)
Degree Days  
Heating Degree Days 0 1  
Month to date heating degree days 134 74  
Since 1 July heating degree days 1982 2132  
Cooling Degree Days 5 5  
Month to date cooling degree days 74 88  
Year to date cooling degree days 117 131  
Growing Degree Days 20 (Base 50)    
Moisture  
Dew Point 59 °F    
Average Humidity 68    
Maximum Humidity 93    
Minimum Humidity 42    
Precipitation  
Precipitation 0.02 in 0.10 in 4.31 in (1922)
Month to date precipitation 1.75 2.25  
Year to date precipitation 10.73 10.15  
Snow  
Snow 0.00 in 0.00 in 0.00 in ()
Month to date snowfall 0.0 0.1  
Since 1 July snowfall T 1.0  
Snow Depth 0.00 in    
Sea Level Pressure  
Sea Level Pressure 30.09 in    
Wind  
Wind Speed 12 mph (SSE)    
Max Wind Speed 23 mph    
Max Gust Speed 30 mph    
Visibility 7 miles    
Events Rain    
T = Trace of Precipitation, MM = Missing Value Source: NWS Daily Summary

Daily Weather History Graph

Daily Weather History Graph

Search for Another Location

Airport or City:

Trip Planner

Search our weather history database for the weather conditions in past years. The results will help you decide how hot, cold, wet, or windy it might be!

Date:

Astronomy

Apr. 26, 2013 Rise Set
Actual Time 6:48 AM CDT 8:05 PM CDT
Civil Twilight 6:22 AM CDT 8:31 PM CDT
Nautical Twilight 5:52 AM CDT 9:01 PM CDT
Astronomical Twilight 5:20 AM CDT 9:33 PM CDT
Moon 9:24 PM CDT (4/26) 7:20 AM CDT (4/26)
Length of Visible Light 14h 08m
Length of Day
13h 17m
Full, 99% of the Moon is Illuminated
Apr 26
Full
May 2
Last Quarter
May 9
New
May 17
First Quarter
May 24
Full

Hourly Weather History & Observations

Time (CDT) Temp. Dew Point Humidity Pressure Visibility Wind Dir Wind Speed Gust Speed Precip Events Conditions
12:51 AM 66.0 °F 43.0 °F 43% 30.14 in 10.0 mi SE 16.1 mph - N/A   Overcast
1:51 AM 64.9 °F 44.1 °F 47% 30.13 in 10.0 mi SSE 11.5 mph - N/A   Overcast
2:51 AM 64.9 °F 45.0 °F 48% 30.11 in 10.0 mi SSE 11.5 mph - N/A   Overcast
3:05 AM 64.4 °F 44.6 °F 49% 30.12 in 10.0 mi SSE 8.1 mph - N/A   Overcast
3:51 AM 64.9 °F 50.0 °F 58% 30.10 in 10.0 mi South 19.6 mph 29.9 mph N/A   Overcast
4:51 AM 64.0 °F 52.0 °F 65% 30.10 in 10.0 mi SSE 13.8 mph - N/A   Overcast
5:51 AM 63.0 °F 55.9 °F 78% 30.09 in 10.0 mi South 15.0 mph - N/A   Overcast
6:48 AM 62.6 °F 57.2 °F 82% 30.12 in 8.0 mi SSE 5.8 mph - N/A   Overcast
6:51 AM 63.0 °F 57.0 °F 81% 30.11 in 8.0 mi SSE 6.9 mph - N/A   Overcast
7:25 AM 62.6 °F 59.0 °F 88% 30.13 in 1.8 mi SSE 5.8 mph - N/A   Overcast
7:51 AM 62.1 °F 59.0 °F 90% 30.13 in 1.2 mi SSE 5.8 mph - N/A   Overcast
8:49 AM 62.6 °F 60.8 °F 94% 30.14 in 0.8 mi SE 5.8 mph - 0.00 in Rain Light Rain
8:51 AM 62.1 °F 60.1 °F 93% 30.13 in 0.8 mi SE 5.8 mph - 0.00 in Rain Light Rain
9:29 AM 62.6 °F 60.8 °F 94% 30.14 in 1.8 mi SE 6.9 mph - 0.01 in   Overcast
9:36 AM 62.6 °F 62.6 °F 100% 30.14 in 2.0 mi SE 8.1 mph - 0.02 in   Overcast
9:51 AM 63.0 °F 62.1 °F 97% 30.13 in 3.0 mi SSE 8.1 mph - 0.02 in   Overcast
10:51 AM 64.9 °F 63.0 °F 93% 30.14 in 3.0 mi SE 5.8 mph - N/A   Overcast
11:51 AM 69.1 °F 66.0 °F 90% 30.13 in 3.0 mi SSE 10.4 mph - N/A   Overcast
12:34 PM 71.6 °F 66.2 °F 83% 30.12 in 3.0 mi South 11.5 mph - N/A   Haze
12:51 PM 73.0 °F 66.0 °F 79% 30.10 in 3.0 mi South 13.8 mph - N/A   Overcast
1:51 PM 75.9 °F 64.9 °F 69% 30.08 in 8.0 mi South 15.0 mph - N/A   Overcast
2:51 PM 73.9 °F 64.9 °F 73% 30.06 in 6.0 mi South 10.4 mph - 0.00 in Rain Light Rain
3:51 PM 73.9 °F 64.9 °F 73% 30.06 in 8.0 mi South 12.7 mph - 0.00 in   Overcast
4:51 PM 78.1 °F 64.9 °F 64% 30.03 in 8.0 mi South 16.1 mph 23.0 mph N/A   Partly Cloudy
5:51 PM 77.0 °F 64.9 °F 66% 29.97 in 8.0 mi SSE 18.4 mph 26.5 mph N/A   Scattered Clouds
6:51 PM 75.9 °F 64.9 °F 69% 30.00 in 9.0 mi South 10.4 mph - N/A   Overcast
7:51 PM 75.0 °F 64.9 °F 71% 30.00 in 8.0 mi South 9.2 mph - N/A   Overcast
8:51 PM 73.0 °F 64.9 °F 76% 30.00 in 9.0 mi South 8.1 mph - N/A   Scattered Clouds
9:51 PM 73.0 °F 64.9 °F 76% 30.01 in 9.0 mi South 10.4 mph - N/A   Clear
10:51 PM 73.9 °F 64.9 °F 73% 30.04 in 9.0 mi South 13.8 mph - N/A   Scattered Clouds
11:51 PM 72.0 °F 64.0 °F 76% 30.03 in 10.0 mi South 16.1 mph - N/A   Clear